TimeMST,TemperatureF,Dew PointF,Humidity,Sea Level PressureIn,VisibilityMPH,Wind Direction,Wind SpeedMPH,Gust SpeedMPH,PrecipitationIn,Events,Conditions,WindDirDegrees,DateUTC
12:53 AM,71.6,24.8,17,30.05,10.0,Variable,3.5,-,N/A,,Clear,0,2012-10-05 07:53:00
1:53 AM,71.1,26.1,19,29.86,10.0,Variable,3.5,-,N/A,,Clear,0,2012-10-05 08:53:00
2:53 AM,66.9,28.0,23,29.87,10.0,Calm,Calm,-,N/A,,Clear,0,2012-10-05 09:53:00
3:53 AM,64.9,28.0,25,29.88,10.0,Calm,Calm,-,N/A,,Clear,0,2012-10-05 10:53:00
4:53 AM,62.1,30.0,30,29.90,10.0,Calm,Calm,-,N/A,,Clear,0,2012-10-05 11:53:00
5:53 AM,62.1,30.9,31,29.91,10.0,SSW,4.6,-,N/A,,Clear,200,2012-10-05 12:53:00
6:53 AM,62.1,30.0,30,29.92,10.0,Calm,Calm,-,N/A,,Clear,0,2012-10-05 13:53:00
7:53 AM,68.0,28.9,23,29.93,10.0,Calm,Calm,-,N/A,,Clear,0,2012-10-05 14:53:00
8:53 AM,71.1,28.9,21,29.94,10.0,NE,4.6,-,N/A,,Clear,40,2012-10-05 15:53:00
9:53 AM,73.9,28.9,19,29.93,10.0,ENE,5.8,-,N/A,,Clear,60,2012-10-05 16:53:00
10:53 AM,77.0,28.9,17,29.92,10.0,NE,5.8,-,N/A,,Clear,50,2012-10-05 17:53:00
11:53 AM,80.1,28.9,15,29.89,10.0,North,4.6,-,N/A,,Clear,10,2012-10-05 18:53:00
12:53 PM,82.9,27.0,13,29.85,10.0,Variable,6.9,-,N/A,,Clear,0,2012-10-05 19:53:00
1:53 PM,84.9,25.0,11,29.81,10.0,West,11.5,19.6,N/A,,Clear,280,2012-10-05 20:53:00
2:53 PM,84.0,24.1,11,29.80,10.0,West,8.1,19.6,N/A,,Clear,270,2012-10-05 21:53:00
3:53 PM,82.9,24.1,12,29.80,10.0,West,13.8,21.9,N/A,,Clear,260,2012-10-05 22:53:00
4:53 PM,82.0,23.0,11,29.81,10.0,West,12.7,24.2,N/A,,Clear,270,2012-10-05 23:53:00
5:53 PM,79.0,25.0,14,29.81,10.0,West,13.8,21.9,N/A,,Clear,280,2012-10-06 00:53:00
6:53 PM,78.1,25.0,14,29.83,10.0,Variable,6.9,-,N/A,,Clear,0,2012-10-06 01:53:00
7:53 PM,75.9,26.1,16,29.83,10.0,WNW,4.6,-,N/A,,Clear,300,2012-10-06 02:53:00
8:53 PM,75.0,27.0,17,29.83,10.0,West,3.5,-,N/A,,Clear,260,2012-10-06 03:53:00
9:53 PM,73.9,27.0,18,29.83,10.0,Variable,5.8,-,N/A,,Clear,0,2012-10-06 04:53:00
10:53 PM,72.0,27.0,19,29.83,10.0,NW,4.6,-,N/A,,Clear,310,2012-10-06 05:53:00
11:53 PM,69.1,28.9,22,29.83,10.0,Calm,Calm,-,N/A,,Clear,0,2012-10-06 06:53:00